If you wish to contribute or participate in the discussions about articles you are invited to join SKYbrary as a registered user

 Actions

Arvidsjaur Airport

From SKYbrary Wiki

ESNX /
Revision as of 13:15, 9 October 2017 by Editor1 (talk | contribs) (Created page with "{{Airport |Airport_Name=Arvidsjaur Airport |ICAO_Region=EUR |ICAO_Territory=ES |IATA Code=AJR |Elevation=379.476013 |Location=Arvidsjaur |Main city served=Arvidsjaur |ISO_Subd...")
(diff) ← Older revision | Latest revision (diff) | Newer revision → (diff)
Airport
ICAO: ESNX – IATA: AJR
Summary
Name Arvidsjaur Airport
Region Europe
Territory Sweden SE.gif
Location Arvidsjaur, Arvidsjaur
Serving Arvidsjaur
Elevation 379.476 m
1,245 ft
1,245 ft379.476 m
Coordinates 65° 35' 31.79" N, 19° 15' 51.14" E
Runways
Designator Length Width Surface ROPS
12/30 2500 m8,202.1 ft
45 m147.638 ft
ASP /


METAR
Observation ESNX 261350Z 28006KT CAVOK M01/M15 Q1011
Station ARVIDSJAUR
Date/Time 26 March 2019 13:50:00
Wind direction 280°
Wind speed 06 kts
Lowest cloud amount clouds and visibility OK
Temperature
Dew point
Humidity 33%
QNH 1011 hPa
Weather condition n/a

Arvidsjaur Airport is situated 13 km7.019 nm
13,000 m
42,650.919 ft
from Arvidsjaur town in Sweden.

Climatology

Subarctic climate (Köppen climate classification Dfc)

Maps

Terrain

Loading map...

Airport Layout

Loading map...


Accidents & Serious Incidents at or in vicinity of ESNX

None on SKYbrary